Tracking 35331 objects as of 14-Sep-2026
HD Live streaming from Space Station
objects crossing your sky now

SL-7 R/B


SL-7 R/B is no longer on orbit


NORAD ID: 1950
Int'l Code: 1966-004B
Launch date: January 25, 1966
Source: Commonwealth of Independent States (former USSR) (CIS)
Launch site: KAPUSTIN YAR MISSILE AND SPACE COMPLEX (KYMTR)
Decay date: 1966-07-16

Note: This is a ROCKET BODY
Your satellite tracking list
Your tracking list is empty




NASA's NSSDC Master Catalog

Two Line Element Set (TLE):
1 01950U 66004  B 66197.00114593  .36898607 +17557-0 +00000-0 0  9995
2 01950 048.3599 050.5873 0034562 239.9426 119.7378 16.29718166026975
Source of the keplerian elements: AFSPC